Tracking 25949 objects as of 8-Aug-2022
HD Live streaming from Space Station
objects crossing your sky now

COSMOS 1275 DEB

Track COSMOS 1275 DEB now!
10-day predictions


NORAD ID: 15780
Int'l Code: 1981-053KH
Perigee: 891.9 km
Apogee: 973.0 km
Inclination: 82.8 °
Period: 103.5 minutes
Semi major axis: 7303 km
RCS: 0.022 m2 (small)
Launch date: June 4, 1981
Source: Commonwealth of Independent States (former USSR) (CIS)
Launch site: PLESETSK MISSILE AND SPACE COMPLEX (PKMTR)

Note: This is SATELLITE DEBRIS
aabbcc
Your satellite tracking list
Your tracking list is empty




NASA's NSSDC Master Catalog

Two Line Element Set (TLE):
1 15780U 81053KE  22220.58146726  .00000761  00000-0  58823-3 0  9998
2 15780  82.8162 266.8764 0055511 224.8324 288.1611 13.90957157884027
Source of the keplerian elements: AFSPC